Location: Seattle
(47.6064°N, 122.3308°W)
Time: 14:07:00
(UTC-08:00)

SR - Pass Details

Date: 30 November 2020
Orbit: 575 x 880 km, 66.7° (Epoch: 23 January)

Event Time Altitude Azimuth Distance (km) Brightness Sun altitude
Rises 18:59:42 0° 233° (SW) 2,821 ? -26.1°
Reaches altitude 10° 19:01:58 10° 241° (WSW) 1,950 ? -26.5°
Maximum altitude 19:06:08 42° 313° (NW) 903 ? -27.2°
Enters shadow 19:06:34 41° 329° (NNW) 926 ? -27.3°
